CWLEESTJE Weather Reports


Display with metric or nautical units.
time (UTC)temp
F
wind
direction
speed
MPH
gust
MPH
rain 1hr
in
rain 24hr
in
rain mn
in
humidity
%
barometer
mb
20260905201534 55 344 0.0 0.0 0.00 0.00 0.00 85
20260905200534 56 344 0.0 2.0 0.00 0.00 0.00 85
20260905195546 56 344 2.0 2.0 0.00 0.00 0.00 84
20260905194529 57 344 0.0 0.0 0.00 0.00 0.00 82
20260905193541 57 344 0.0 0.0 0.00 0.00 0.00 81
20260905192525 58 344 0.0 0.0 0.00 0.00 0.00 80
20260905191529 59 344 1.0 4.0 0.00 0.00 0.00 78
20260905190521 60 344 1.0 2.0 0.00 0.00 0.00 77
20260905185525 61 344 0.0 0.0 0.00 0.00 0.00 76
20260905184533 61 344 0.0 4.0 0.00 0.00 0.00 75
20260905183537 62 344 2.0 4.0 0.00 0.00 0.00 75
20260905182549 63 344 1.0 5.0 0.00 0.00 0.00 73
20260905181541 63 342 3.0 5.0 0.00 0.00 0.00 73
20260905180524 64 339 3.0 5.0 0.00 0.00 0.00 72
20260905175536 65 337 3.0 6.0 0.00 0.00 0.00 70
20260905174540 65 337 2.0 8.0 0.00 0.00 0.00 68
20260905173529 66 347 4.0 7.0 0.00 0.00 0.00 66
20260905172542 66 340 4.0 9.0 0.00 0.00 0.00 65
20260905171527 67 355 5.0 9.0 0.00 0.00 0.00 65
20260905170530 68 341 6.0 10.0 0.00 0.00 0.00 63
20260905165522 68 323 4.0 12.0 0.00 0.00 0.00 65
20260905164526 68 344 5.0 10.0 0.00 0.00 0.00 65
20260905163540 68 319 9.0 15.0 0.00 0.00 0.00 63
20260905162529 69 341 7.0 12.0 0.00 0.00 0.00 65
20260905161532 69 317 7.0 14.0 0.00 0.00 0.00 64
20260905160546 69 331 6.0 15.0 0.00 0.00 0.00 62
20260905155528 70 305 10.0 16.0 0.00 0.00 0.00 63
20260905154541 70 5 9.0 18.0 0.00 0.00 0.00 63
20260905153524 70 326 6.0 13.0 0.00 0.00 0.00 65
20260905152528 70 5 7.0 15.0 0.00 0.00 0.00 66
20260905151521 71 325 9.0 15.0 0.00 0.00 0.00 64
20260905150521 72 326 6.0 12.0 0.00 0.00 0.00 63
20260905145535 71 292 9.0 15.0 0.00 0.00 0.00 65
20260905144548 71 319 10.0 16.0 0.00 0.00 0.00 64
20260905143531 71 317 9.0 16.0 0.00 0.00 0.00 64
20260905142534 72 337 8.0 14.0 0.00 0.00 0.00 65
20260905141526 72 295 12.0 15.0 0.00 0.00 0.00 63
20260905140531 71 282 10.0 16.0 0.00 0.00 0.00 63
20260905135543 71 281 9.0 16.0 0.00 0.00 0.00 65
20260905134521 71 294 8.0 20.0 0.00 0.00 0.00 66
20260905133533 70 296 11.0 21.0 0.00 0.00 0.00 66
20260905132537 70 302 8.0 15.0 0.00 0.00 0.00 68
20260905131551 70 285 13.0 18.0 0.00 0.00 0.00 67
20260905130534 71 284 12.0 15.0 0.00 0.00 0.00 69
20260905125527 70 309 11.0 18.0 0.00 0.12 0.00 67
20260905124531 69 304 12.0 16.0 0.00 0.12 0.00 69
20260905123540 69 298 11.0 16.0 0.00 0.12 0.00 68
20260905122522 69 291 9.0 18.0 0.00 0.12 0.00 68
20260905121557 69 297 12.0 16.0 0.00 0.12 0.00 67
20260905120549 69 298 8.0 19.0 0.00 0.12 0.00 71
20260905115541 70 309 9.0 16.0 0.00 0.12 0.00 69
20260905114525 69 296 8.0 16.0 0.00 0.12 0.00 71
20260905113529 69 313 9.0 16.0 0.00 0.12 0.00 71
20260905112538 69 286 11.0 18.0 0.00 0.12 0.00 70
20260905111551 68 309 12.0 18.0 0.00 0.12 0.00 70
20260905110533 70 5 8.0 16.0 0.00 0.12 0.00 70
20260905105546 69 309 9.0 20.0 0.00 0.12 0.00 71
20260905104529 68 296 11.0 18.0 0.00 0.12 0.00 72
20260905103542 68 288 11.0 16.0 0.00 0.12 0.00 74
20260905102547 68 282 10.0 16.0 0.00 0.12 0.00 72
20260905101534 68 319 10.0 16.0 0.00 0.12 0.00 73
20260905100608 67 327 9.0 19.0 0.00 0.12 0.00 73
20260905095531 68 315 11.0 18.0 0.00 0.12 0.00 73
20260905094544 67 304 11.0 16.0 0.00 0.12 0.00 76
20260905093548 66 303 7.0 15.0 0.00 0.12 0.00 77
20260905092540 66 312 8.0 15.0 0.00 0.12 0.00 75
20260905091525 67 289 10.0 18.0 0.00 0.12 0.00 77
20260905090531 66 298 12.0 16.0 0.00 0.12 0.00 81
20260905085605 64 294 10.0 18.0 0.00 0.12 0.00 82
20260905084546 65 267 13.0 22.0 0.00 0.12 0.00 80
20260905083559 65 289 11.0 15.0 0.00 0.12 0.00 85
20260905082552 64 292 11.0 18.0 0.00 0.12 0.00 85
20260905081532 63 283 9.0 18.0 0.00 0.12 0.00 86
20260905080524 62 274 9.0 16.0 0.00 0.12 0.00 87
20260905075527 61 263 11.0 15.0 0.00 0.12 0.00 88
20260905074542 61 279 9.0 15.0 0.00 0.12 0.00 88
20260905073525 60 291 8.0 12.0 0.00 0.12 0.00 89
20260905072558 59 276 8.0 10.0 0.00 0.12 0.00 89
20260905071550 59 279 8.0 11.0 0.00 0.12 0.00 89
20260905070529 59 261 8.0 12.0 0.00 0.12 0.00 89
20260905065524 58 242 9.0 14.0 0.00 0.12 0.00 89
20260905064548 58 255 8.0 11.0 0.00 0.12 0.00 90
20260905063519 57 274 7.0 13.0 0.00 0.12 0.00 90
20260905062524 57 261 10.0 13.0 0.00 0.12 0.00 90
20260905061538 57 271 10.0 13.0 0.00 0.12 0.00 90
20260905060522 56 263 8.0 11.0 0.00 0.12 0.00 90
20260905055535 56 264 9.0 12.0 0.00 0.12 0.00 90
20260905054536 56 286 9.0 13.0 0.00 0.12 0.00 91
20260905053529 56 263 7.0 12.0 0.00 0.12 0.00 90
20260905052533 55 267 8.0 12.0 0.00 0.12 0.00 91
20260905051528 55 275 8.0 13.0 0.00 0.12 0.00 91
20260905050601 55 252 7.0 12.0 0.00 0.12 0.00 91
20260905045524 55 254 7.0 9.0 0.00 0.12 0.00 90
20260905044529 55 238 6.0 9.0 0.00 0.12 0.00 90
20260905043522 55 244 7.0 10.0 0.00 0.12 0.00 90
20260905042522 55 257 8.0 11.0 0.00 0.12 0.00 90
20260905041535 55 263 7.0 11.0 0.00 0.12 0.00 90
20260905040539 55 264 7.0 11.0 0.00 0.12 0.00 90
20260905035531 55 263 8.0 12.0 0.00 0.12 0.00 90
20260905034536 55 271 7.0 10.0 0.00 0.12 0.00 90
20260905033529 55 273 7.0 11.0 0.00 0.12 0.00 90
20260905032533 55 261 8.0 10.0 0.00 0.12 0.00 90
20260905031542 55 277 8.0 10.0 0.00 0.12 0.00 90
20260905030555 55 260 8.0 10.0 0.00 0.12 0.00 90
20260905025537 55 261 8.0 10.0 0.00 0.12 0.00 90
20260905024521 55 252 8.0 10.0 0.00 0.12 0.00 89
20260905023535 55 239 7.0 9.0 0.00 0.12 0.00 89
20260905022548 55 241 7.0 9.0 0.00 0.12 0.00 89
20260905021531 55 234 6.0 10.0 0.00 0.12 0.00 89
20260905020600 56 240 7.0 10.0 0.00 0.12 0.00 88
20260905015522 56 251 7.0 10.0 0.00 0.12 0.00 88
20260905014536 56 266 6.0 9.0 0.00 0.12 0.00 88
20260905013519 56 267 6.0 9.0 0.00 0.12 0.00 88
20260905012532 57 267 8.0 10.0 0.00 0.12 0.00 88
20260905011557 57 274 7.0 12.0 0.00 0.12 0.00 88
20260905010530 56 264 7.0 10.0 0.00 0.12 0.00 88
20260905005559 57 270 7.0 10.0 0.00 0.12 0.00 87
20260905004522 57 261 8.0 11.0 0.00 0.12 0.00 88
20260905003525 57 263 7.0 11.0 0.00 0.12 0.00 88
20260905002519 57 254 8.0 10.0 0.00 0.12 0.00 87
20260905001524 58 252 7.0 10.0 0.00 0.12 0.00 86
20260905000536 58 263 5.0 8.0 0.00 0.12 0.00 86
20260904235521 58 271 6.0 10.0 0.00 0.12 0.00 86
20260904234535 59 267 7.0 11.0 0.00 0.12 0.00 86
20260904233604 59 259 8.0 11.0 0.00 0.12 0.00 86
20260904232527 59 273 8.0 11.0 0.00 0.12 0.00 86
20260904231544 59 273 8.0 11.0 0.00 0.12 0.00 86
20260904230538 59 266 8.0 11.0 0.00 0.12 0.00 87
20260904225531 59 257 7.0 11.0 0.00 0.12 0.00 87
20260904224535 59 259 6.0 8.0 0.00 0.12 0.00 87
20260904223518 59 271 6.0 10.0 0.00 0.12 0.00 87
20260904222527 59 273 5.0 7.0 0.00 0.12 0.00 86
20260904221540 59 280 5.0 6.0 0.00 0.12 0.00 85
20260904220525 60 266 6.0 8.0 0.00 0.12 0.00 85
20260904215558 60 281 5.0 7.0 0.00 0.12 0.02 84
20260904214522 61 285 5.0 6.0 0.00 0.12 0.02 83
20260904213554 62 286 5.0 7.0 0.00 0.12 0.02 82
20260904212546 62 302 5.0 8.0 0.00 0.12 0.02 81
20260904211547 63 288 5.0 8.0 0.00 0.12 0.02 81
20260904210538 63 292 6.0 8.0 0.00 0.12 0.02 80
20260904205523 64 291 6.0 8.0 0.00 0.12 0.02 80
20260904204557 64 279 6.0 9.0 0.00 0.12 0.02 80
20260904203519 64 273 7.0 9.0 0.00 0.12 0.02 80
20260904202532 64 288 6.0 9.0 0.00 0.12 0.02 80